Location: Unspecified
(48.2082°N, 0.0000°E)
Time: 11:43:17
(UTC+00:00)

Altair - Pass Details

Date: 27 June 2019
Orbit: 1501 x 1683 km, 47.2° (Epoch: 19 July)

Event Time Altitude Azimuth Distance (km) Brightness Sun altitude
Rises 18:23:35 0° 227° (SW) 4,662 10.4 13.9°
Reaches altitude 10° 18:26:39 10° 223° (SW) 3,699 9.9 13.4°
Maximum altitude 18:35:40 55° 149° (SSE) 1,841 7.8 12.0°
Drops below altitude 10° 18:45:03 10° 76° (ENE) 3,846 9.2 10.6°
Sets 18:48:18 0° 72° (ENE) 4,858 9.7 10.1°
